User: anonymous   Login
Location: Whitehorse
(60.7170°N, 135.0500°W)
Time: 14:22:45
(UTC-08:00)
Language:

Cosmos 2219 Rocket - Orbit

View from above orbital plane
View from above orbital plane
View from above satellite
View from above satellite

Ground track
Ground track

The orbit data is extracted from the following two-line orbital elements,

1 22220U 92076B   15028.25910072 -.00000165  00000-0 -59145-4 0  5116
2 22220 071.0005 092.4093 0011941 170.7387 245.3854 14.16349271147459
Epoch (UTC): 28 January 2015 06:13:06
Eccentricity: 0.0011941
inclination: 71.0005°
perigee height: 829 km
apogee height: 846 km
right ascension of ascending node: 92.4093°
argument of perigee: 170.7387°
revolutions per day: 14.16349271
mean anomaly at epoch: 245.3854°
orbit number at epoch: 14745

The dashed part of the orbit path shows where the satellite is in the earth's shadow,  

DLR